Wind_Speed
137 136 136 136 135 135 134 134 134 134 134 134 134 134 134 134 134 134 134 134 134 134 134 135 135 135 135 135 135 135 135 134 134 134 133 132 132 132 132 132 132 131 129 128 128 128 128 127 127 127 127 128 131 135 139 142 143 144 143 142 141 140 139
140 139 138 138 138 137 136 135 134 133 133 133 133 133 133 133 134 134 134 135 134 134 135 135 135 135 135 135 135 134 134 134 134 134 134 134 133 133 133 133 133 132 132 131 130 129 129 129 129 129 129 130 131 134 137 140 142 143 144 143 142 141 140
141 141 140 140 139 138 137 136 135 134 133 132 132 132 132 132 132 133 133 134 134 134 135 135 135 135 135 135 134 134 134 134 134 134 134 135 135 134 134 134 134 134 133 132 132 131 131 131 131 131 131 132 133 135 137 139 141 142 143 143 143 142 141
141 141 141 140 140 139 138 137 136 135 134 133 132 131 131 131 131 131 132 133 133 133 134 134 134 134 134 134 134 134 133 133 133 134 134 135 135 135 135 135 135 135 135 134 133 133 133 132 133 133 133 134 135 136 138 140 141 142 143 143 144 143 142
141 141 140 139 139 138 137 137 136 134 133 132 132 131 130 130 130 130 131 132 132 132 132 133 133 134 134 134 134 133 133 133 133 133 133 134 134 135 135 135 135 135 135 135 135 134 134 134 134 134 135 135 136 137 139 141 142 143 143 144 144 145 145
137 137 137 137 135 134 134 133 133 132 130 129 129 128 128 128 128 129 129 130 131 131 131 132 132 132 133 133 133 133 133 132 132 132 132 132 133 134 134 134 135 135 136 136 136 136 136 135 135 135 136 136 137 138 140 142 143 144 145 146 146 146 147
132 132 132 132 130 129 128 128 128 127 126 124 124 124 124 123 124 125 125 126 127 128 128 129 130 130 131 131 132 132 132 132 132 132 132 132 132 133 133 134 134 134 135 136 137 137 137 137 137 137 137 137 138 138 140 142 144 146 147 147 148 148 149
127 127 127 126 125 124 124 123 123 122 121 120 120 119 119 118 119 120 121 121 122 122 123 124 125 126 127 128 129 130 130 131 131 131 131 131 131 132 133 133 133 134 134 135 136 137 138 138 138 138 138 138 139 139 140 142 144 146 148 149 150 150 151
124 123 123 122 121 120 120 119 119 118 117 117 117 116 115 114 114 115 117 118 118 118 118 119 120 120 121 122 124 125 126 127 128 129 129 130 130 131 132 132 133 133 134 134 135 136 138 138 139 139 139 140 140 140 140 142 143 146 148 150 152 153 153
120 120 120 119 118 117 116 115 115 114 114 114 114 114 113 112 111 112 113 114 115 115 115 116 116 117 117 118 119 120 121 123 124 125 126 127 128 129 130 131 132 133 133 134 135 136 137 138 139 139 140 140 140 141 141 142 143 145 147 150 153 155 155
117 117 117 116 115 115 114 113 111 111 110 111 113 112 112 111 110 110 110 111 112 114 114 115 115 115 115 116 116 116 117 119 120 121 122 124 125 126 127 129 130 131 132 133 134 135 136 137 139 139 140 141 141 141 142 143 144 145 147 149 152 155 156
114 115 115 114 114 113 112 111 109 108 107 108 110 111 111 110 109 108 108 108 109 111 113 113 114 114 115 115 115 115 115 116 117 118 120 121 122 123 124 126 128 129 130 132 133 134 135 137 138 139 140 141 141 142 142 143 144 146 147 149 151 153 155
111 111 111 111 111 110 109 108 107 106 105 105 106 109 109 108 107 106 106 106 107 108 110 111 113 114 114 114 115 115 115 115 116 117 118 119 120 120 121 123 124 126 128 129 131 132 134 135 137 138 139 140 141 142 142 143 144 146 147 149 150 152 154
107 107 108 108 108 107 107 106 105 104 103 101 102 105 108 107 105 104 104 104 105 106 108 109 111 112 113 114 114 114 114 115 115 116 117 117 118 119 120 121 122 123 124 126 128 130 132 133 135 136 138 139 140 141 142 143 144 145 147 148 150 152 153
103 104 105 105 105 105 104 104 103 102 101 99 99 101 104 106 104 103 102 101 102 104 106 108 109 110 111 112 112 113 113 114 114 115 116 116 117 118 118 119 120 121 122 123 125 127 128 130 132 133 135 137 139 140 141 142 144 145 146 147 149 150 152
100 101 101 102 102 102 102 102 101 100 99 98 96 97 101 103 103 102 101 100 100 101 103 106 108 108 108 109 110 111 111 112 113 114 115 116 116 116 117 118 119 119 120 121 122 124 125 127 128 130 132 134 136 138 140 141 142 144 145 146 147 149 150
97 97 98 99 99 100 100 99 99 98 97 96 94 95 97 99 101 101 100 98 98 99 101 104 106 108 107 107 108 108 109 110 110 111 113 114 114 115 115 116 117 118 119 119 120 121 122 123 125 127 129 131 133 135 137 139 141 142 144 145 146 147 149
94 95 95 96 96 97 97 97 97 96 95 94 93 92 93 96 98 99 98 97 96 97 99 101 104 107 108 107 107 107 108 108 108 109 110 111 112 113 114 115 116 117 117 118 118 119 120 121 123 124 125 127 129 131 134 136 138 140 141 143 144 146 147
92 93 93 93 94 94 95 95 95 94 94 93 92 90 90 92 95 97 96 95 95 96 97 99 102 105 107 108 108 108 107 107 107 107 108 109 110 112 113 113 114 116 116 116 117 118 119 120 121 122 123 124 125 127 129 131 134 136 138 140 141 143 145
90 90 91 91 91 91 92 93 93 93 92 91 91 89 88 89 91 93 93 93 94 94 95 97 100 102 105 108 109 109 108 107 106 106 106 107 109 110 111 112 113 114 115 115 116 117 117 118 118 119 120 122 123 124 124 126 128 131 133 136 138 139 141
88 88 88 89 89 89 90 90 91 91 91 90 89 88 87 87 89 90 91 91 92 92 93 94 97 99 102 105 108 110 110 108 106 104 104 106 107 108 109 110 112 113 113 114 115 115 116 116 116 117 118 119 120 121 121 122 123 125 128 130 132 135 137
86 86 87 87 87 87 88 88 89 90 89 89 88 87 86 86 87 88 89 89 90 91 92 93 95 97 99 102 104 107 109 109 107 105 103 104 105 106 108 109 110 111 111 112 113 113 114 114 114 115 116 116 117 118 118 119 120 121 122 124 126 129 131
84 85 85 86 86 86 86 87 87 88 88 88 87 87 86 85 86 86 87 87 88 89 90 92 94 95 97 99 101 103 105 107 107 105 104 103 103 105 106 108 108 109 109 110 111 111 112 112 113 113 113 114 114 115 116 117 117 118 119 120 121 123 125
82 83 83 84 84 84 84 85 85 86 86 86 86 86 86 85 85 85 85 85 86 87 88 91 93 94 95 97 98 100 102 104 105 105 104 103 102 103 104 105 106 106 107 108 108 109 110 111 112 112 113 113 114 114 115 116 116 117 117 118 118 119 121
80 80 81 82 83 83 83 83 83 83 84 84 84 85 85 84 84 84 84 84 84 85 87 89 91 92 93 94 95 98 100 102 103 103 103 102 102 101 101 102 103 103 104 105 105 106 107 109 110 111 112 112 113 114 114 115 116 116 117 118 118 118 119
78 78 79 80 81 82 82 82 82 81 81 82 82 83 83 83 83 84 83 83 83 84 85 87 89 90 90 91 93 95 97 99 100 102 102 102 101 101 100 100 100 100 101 102 103 103 104 106 107 108 109 109 110 111 112 113 114 115 116 116 116 117 118
77 77 78 78 79 80 81 81 81 80 80 81 81 81 81 82 82 82 82 82 82 82 84 86 87 88 89 90 91 93 94 96 97 98 99 100 100 100 100 99 99 98 98 99 100 101 102 103 104 105 106 106 107 108 109 110 111 112 113 114 114 115 116
75 76 76 77 79 79 80 81 80 80 79 79 79 80 80 80 80 81 81 81 81 81 82 84 85 86 87 88 89 91 92 93 94 95 96 97 98 99 99 99 98 97 96 97 97 98 100 101 102 103 104 104 105 106 106 107 108 109 110 111 111 112 113
74 74 75 76 77 79 79 80 80 79 78 79 78 78 78 79 79 79 79 80 80 80 81 82 83 84 85 86 87 89 90 91 92 93 94 95 96 97 97 98 97 97 96 95 96 96 97 98 99 100 101 102 103 104 105 105 105 106 107 108 109 109 110
73 73 74 74 76 77 78 79 79 78 78 77 77 77 77 77 77 78 78 78 79 79 80 81 82 83 83 84 85 86 88 89 89 90 91 92 93 94 95 96 96 96 96 95 95 95 95 95 96 97 98 99 100 102 103 104 104 105 105 106 106 107 107
72 72 73 73 74 75 76 77 78 78 77 77 76 76 77 77 77 77 78 78 78 79 79 80 80 81 82 82 83 84 85 86 87 88 89 90 91 91 93 94 94 95 95 95 94 94 95 95 95 95 95 96 97 98 100 101 102 103 104 104 105 105 105
69 70 70 71 72 73 74 75 76 76 76 76 75 75 75 76 76 77 77 78 78 78 79 79 80 81 81 81 81 82 84 85 85 86 87 88 89 89 90 91 92 93 93 93 93 93 93 94 94 94 94 95 95 96 97 98 100 100 101 102 102 103 103
67 67 68 69 70 71 72 73 74 74 74 74 74 73 73 74 75 76 76 76 77 78 79 79 80 80 81 81 81 82 83 84 84 85 86 87 87 88 88 89 90 91 92 92 92 92 92 93 93 93 93 93 94 94 95 96 97 97 98 98 99 100 101
65 66 66 67 67 68 69 71 72 72 72 72 72 71 71 72 73 73 74 74 75 76 77 77 78 79 79 80 80 81 82 83 83 84 85 86 86 87 88 88 89 90 91 92 92 92 92 92 92 92 93 93 93 94 94 94 95 95 95 95 96 96 97
61 62 64 66 66 67 68 69 70 70 70 70 70 70 70 70 71 71 71 72 72 73 74 75 75 76 76 77 78 79 80 80 81 82 83 84 85 86 87 87 88 89 90 90 91 92 92 92 92 93 93 93 94 94 95 95 95 95 95 94 94 95 95
57 58 60 62 64 66 67 68 68 68 68 68 68 68 68 69 69 69 70 70 70 71 72 73 73 73 73 74 75 76 77 77 78 79 80 81 82 84 84 85 85 86 87 88 89 90 90 91 91 92 92 93 93 94 95 95 95 95 95 95 95 95 95
Wind_Direction
266 265 265 264 264 263 262 261 261 260 260 260 259 259 259 259 258 258 258 257 257 257 256 256 255 255 255 254 254 254 254 254 254 254 254 254 254 254 254 255 255 255 255 254 254 253 253 253 253 252 252 252 251 251 251 251 251 252 253 253 254 255 256
267 266 266 266 265 265 264 263 263 262 261 261 260 260 259 259 259 259 258 258 258 257 257 257 256 256 256 255 255 254 254 254 254 254 254 254 253 253 253 254 254 254 254 254 253 253 253 253 252 252 252 252 251 251 251 251 251 251 252 252 253 253 254
266 266 266 266 266 265 265 265 264 264 263 262 261 261 260 260 259 259 259 259 258 258 258 258 257 257 256 256 255 255 254 254 253 253 253 253 253 253 253 253 253 253 253 253 253 252 252 252 252 252 251 251 251 251 251 251 251 251 251 251 251 252 252
266 266 266 266 266 266 266 265 265 264 264 263 263 262 262 261 261 260 260 259 259 258 258 258 258 257 257 257 256 255 255 254 253 253 253 253 253 253 252 252 252 252 252 252 252 252 251 251 251 251 251 251 251 251 251 251 251 251 251 251 251 250 250
267 266 266 266 266 266 266 266 265 265 264 264 263 263 262 262 261 261 260 260 259 259 259 258 258 258 257 257 257 256 255 255 254 253 253 252 252 252 252 252 252 252 252 252 252 252 251 251 251 250 250 251 250 250 250 251 251 251 251 251 251 250 249
267 267 267 267 266 266 266 266 266 265 265 264 264 263 263 262 262 261 261 260 260 259 259 259 258 258 258 257 257 257 256 255 254 254 253 252 252 252 252 251 251 251 251 251 251 251 251 251 250 250 250 250 250 250 250 250 250 250 250 250 250 250 249
267 267 267 267 267 267 267 266 266 266 266 265 265 264 264 263 262 262 261 260 260 260 259 259 258 258 258 257 257 257 256 256 255 254 253 253 252 252 251 251 251 250 250 250 250 250 250 250 250 250 250 250 249 249 249 249 250 250 250 250 250 249 249
267 267 267 267 267 267 267 267 267 267 266 266 265 265 264 263 263 263 262 262 261 260 260 259 259 258 258 258 257 257 257 256 255 255 254 253 252 252 251 251 251 250 250 250 250 250 250 250 250 250 250 250 249 249 249 249 249 249 249 249 249 249 249
267 267 267 267 267 267 267 267 267 267 267 267 266 265 264 264 263 263 263 263 262 261 261 260 259 258 258 258 257 257 257 256 256 255 255 254 253 252 252 251 251 250 249 249 249 249 249 250 249 249 249 249 249 249 249 249 249 248 249 249 249 249 249
267 268 268 268 268 268 267 267 267 267 267 267 267 266 265 264 263 262 262 262 262 262 261 261 260 259 258 258 257 257 257 257 256 256 255 254 254 253 252 252 251 250 250 249 249 248 249 249 249 249 249 249 249 249 249 249 249 248 248 248 248 248 248
267 267 268 268 268 268 268 267 267 267 267 267 267 266 266 265 264 263 262 262 262 262 262 261 260 260 259 258 258 257 257 256 256 256 255 255 254 253 253 252 251 251 250 250 249 248 248 248 248 248 248 248 248 248 248 249 249 248 248 248 248 248 248
266 267 267 267 267 267 267 267 267 266 266 266 266 266 266 265 265 264 263 262 262 261 261 261 260 260 259 259 258 257 257 256 256 256 256 255 254 254 253 253 252 251 251 250 250 249 248 248 248 248 248 248 248 248 248 248 248 248 248 248 248 248 248
265 266 266 266 267 267 267 267 266 266 266 265 265 266 266 265 264 264 263 263 262 261 260 260 260 259 259 259 258 257 257 256 256 256 256 255 255 254 254 253 252 252 251 251 250 250 249 249 248 248 248 248 248 248 248 248 248 248 248 248 249 249 249
265 265 265 266 266 266 266 266 266 265 265 264 264 265 265 265 264 263 263 262 262 261 261 260 259 259 259 258 258 258 257 257 256 256 256 255 255 255 254 254 253 253 252 252 251 251 250 250 249 249 248 249 249 248 248 248 248 248 248 248 248 249 249
265 265 265 265 265 265 265 265 265 265 264 264 263 263 264 264 264 263 262 261 261 260 260 260 259 259 258 258 258 258 258 258 257 257 256 256 255 255 255 254 254 253 253 252 252 252 251 251 250 250 249 249 249 249 248 248 248 248 248 248 248 249 249
264 265 265 265 265 265 265 265 265 264 264 263 262 262 262 263 263 263 262 261 260 260 259 260 260 259 259 258 258 258 258 258 258 257 257 257 256 256 255 255 255 254 254 253 253 253 252 252 251 251 250 250 249 249 249 249 249 249 249 248 248 249 249
264 264 264 264 265 265 265 265 264 264 263 263 262 261 261 262 262 262 261 260 259 259 258 259 259 260 259 259 258 258 258 258 257 257 257 257 257 257 256 256 255 255 255 254 254 254 253 253 252 252 251 251 250 250 250 250 250 250 249 249 249 249 249
264 264 264 264 264 265 265 265 264 264 264 263 262 261 260 261 261 261 261 260 259 258 257 257 258 259 260 259 258 257 257 257 257 257 257 257 257 257 257 256 256 256 255 255 254 254 254 254 253 253 252 252 251 251 251 250 250 251 250 250 250 250 250
265 265 265 265 265 265 265 265 265 265 264 264 263 261 261 261 261 261 261 260 259 258 257 256 256 257 258 259 259 258 257 256 256 256 256 256 257 257 257 256 256 256 256 255 255 254 254 254 254 254 253 253 253 252 252 251 251 251 251 251 251 251 251
265 265 265 265 265 265 265 265 265 265 264 264 263 262 261 261 261 261 261 261 260 259 258 257 256 256 257 258 259 259 258 257 256 256 256 256 256 256 256 256 256 256 256 256 255 255 255 254 254 254 254 254 254 253 253 252 252 252 252 252 252 252 252
266 266 266 266 266 266 266 265 265 265 265 264 264 263 262 261 261 261 261 261 260 259 258 258 257 256 256 257 258 259 260 259 258 257 256 255 255 256 256 256 256 256 256 256 256 255 255 255 255 255 254 254 254 254 254 254 253 253 253 253 252 252 253
267 267 267 267 266 266 266 266 266 266 266 265 265 264 263 262 262 261 261 261 260 260 259 258 257 257 257 257 257 258 259 260 260 259 258 257 256 256 256 255 256 256 256 256 256 256 256 256 255 255 255 255 255 255 255 255 254 254 254 254 253 253 253
267 267 267 267 267 266 266 266 266 266 266 266 266 265 265 264 263 262 261 261 261 260 260 259 258 257 257 257 257 258 258 259 260 261 260 259 258 257 257 256 256 256 256 256 256 256 256 256 256 256 256 255 255 255 256 255 255 255 255 254 254 254 254
268 268 268 268 267 267 267 266 266 266 266 266 266 266 265 265 264 263 262 262 261 261 260 260 259 258 258 258 258 258 258 259 259 260 260 260 259 258 258 258 258 257 257 257 256 256 255 255 255 255 255 254 254 254 254 254 254 254 254 254 254 254 254
267 267 267 268 268 268 267 267 266 266 266 266 266 266 265 265 264 263 263 262 261 261 260 260 260 259 259 259 258 258 259 259 259 260 260 260 260 260 259 259 258 258 258 258 258 257 257 256 256 255 255 255 255 254 254 254 254 254 254 254 253 253 253
267 267 267 267 267 268 267 267 267 266 266 266 266 265 265 265 264 264 263 262 262 261 261 260 260 260 259 259 259 259 259 259 259 260 261 261 261 261 261 260 259 259 258 258 258 258 258 258 258 257 257 257 256 256 256 256 256 255 255 255 255 255 254
267 267 267 267 267 267 267 267 267 266 266 266 266 266 265 265 264 264 264 263 262 261 261 260 260 260 260 260 259 259 259 259 259 260 260 261 261 262 262 261 261 260 259 259 258 258 258 258 258 258 258 258 257 257 257 257 257 257 256 256 256 256 256
268 267 268 268 268 268 268 268 267 267 267 266 266 266 266 265 265 265 264 263 263 262 261 261 261 260 260 260 260 260 259 259 260 260 260 261 261 262 262 262 262 261 261 260 259 259 258 258 258 258 258 258 258 258 257 257 257 256 256 256 256 256 256
268 268 268 268 268 268 268 268 268 268 267 267 267 266 266 266 265 265 265 264 263 263 262 261 261 261 260 260 260 260 260 260 260 260 260 260 261 261 262 262 262 262 262 261 260 260 259 258 258 258 258 258 258 259 258 258 258 257 257 257 256 256 256
270 269 268 268 268 268 268 268 268 268 267 267 267 267 266 266 266 265 265 264 264 263 263 262 262 261 261 261 260 260 260 260 260 260 260 260 261 261 261 262 262 262 262 262 262 261 261 260 259 259 258 258 258 258 259 259 259 258 258 258 258 257 257
271 271 270 270 269 269 268 268 268 268 268 267 267 267 267 266 266 266 265 265 264 264 263 263 262 262 261 261 261 261 261 261 261 261 261 260 261 261 261 261 262 262 262 262 262 262 262 261 261 260 259 259 258 258 258 258 258 258 259 259 259 259 258
272 271 271 271 271 270 270 269 269 268 268 268 267 267 267 266 266 266 266 265 265 265 264 264 263 263 262 262 261 261 261 261 261 261 261 261 261 261 261 261 262 262 262 262 262 262 262 262 261 261 261 260 260 259 259 258 258 258 258 258 259 259 259
273 272 271 271 271 270 270 270 270 269 269 269 268 268 267 267 266 266 266 265 265 265 264 264 264 263 263 263 262 262 262 261 261 261 261 260 260 260 260 261 261 261 261 262 261 261 261 261 261 261 261 261 261 260 260 259 259 258 258 258 258 258 258
273 273 272 271 271 270 270 270 270 270 270 269 269 269 268 267 267 266 265 265 265 264 264 264 264 263 263 263 263 262 262 262 262 261 261 261 261 260 260 260 260 260 261 261 261 261 261 261 261 261 261 261 261 261 261 260 260 260 259 259 258 258 258
271 272 272 272 272 271 270 270 269 269 269 269 269 268 268 267 267 266 266 265 265 265 264 264 263 263 263 263 262 262 262 262 262 262 261 261 261 261 261 260 260 260 260 260 260 260 260 260 261 261 261 261 261 261 261 261 261 260 260 260 259 259 259
271 271 271 272 273 273 272 271 271 270 270 269 269 269 268 267 267 266 266 265 265 265 265 264 264 263 263 262 262 262 262 262 261 261 261 261 261 261 261 261 261 261 260 260 260 261 260 260 260 260 260 260 260 260 260 260 260 260 260 260 260 260 259
Height
10202 10203 10204 10204 10205 10207 10208 10209 10210 10212 10213 10215 10216 10217 10218 10220 10221 10222 10223 10224 10226 10228 10229 10231 10232 10234 10236 10239 10242 10245 10248 10250 10252 10255 10257 10261 10264 10266 10267 10269 10273 10276 10280 10282 10284 10286 10289 10292 10296 10300 10303 10306 10307 10307 10307 10307 10309 10311 10314 10317 10319 10320 10321
10179 10180 10180 10181 10182 10183 10185 10187 10189 10191 10193 10195 10196 10197 10198 10200 10201 10202 10203 10204 10205 10207 10209 10210 10212 10214 10217 10220 10223 10226 10229 10232 10234 10236 10238 10241 10245 10248 10250 10252 10254 10257 10261 10264 10267 10269 10271 10273 10276 10281 10285 10288 10290 10291 10291 10292 10293 10296 10298 10302 10305 10307 10308
10157 10157 10157 10158 10159 10160 10162 10164 10166 10169 10171 10174 10176 10177 10178 10179 10181 10182 10183 10184 10185 10187 10188 10190 10192 10194 10197 10200 10203 10206 10210 10212 10215 10217 10219 10221 10225 10228 10231 10234 10236 10239 10242 10245 10249 10251 10253 10255 10257 10261 10265 10269 10271 10273 10275 10276 10278 10280 10283 10286 10289 10292 10294
10135 10135 10135 10136 10136 10138 10140 10141 10144 10147 10149 10152 10154 10156 10158 10159 10160 10162 10162 10163 10164 10166 10168 10169 10171 10173 10176 10179 10182 10185 10189 10192 10195 10197 10200 10202 10205 10208 10211 10214 10217 10220 10223 10226 10230 10233 10235 10237 10239 10242 10246 10249 10253 10255 10257 10259 10262 10264 10267 10270 10273 10276 10279
10113 10112 10113 10114 10115 10116 10118 10119 10121 10124 10127 10130 10132 10135 10137 10138 10139 10140 10141 10142 10143 10145 10147 10149 10151 10152 10155 10157 10160 10164 10168 10171 10175 10177 10180 10183 10185 10188 10192 10195 10198 10201 10204 10207 10210 10214 10216 10219 10222 10224 10227 10230 10233 10237 10239 10241 10244 10247 10251 10254 10257 10259 10262
10093 10091 10090 10092 10094 10095 10096 10097 10099 10102 10105 10108 10110 10113 10115 10117 10117 10118 10119 10120 10122 10124 10126 10128 10130 10132 10134 10136 10139 10142 10146 10150 10153 10157 10160 10163 10165 10168 10171 10175 10178 10181 10185 10188 10191 10194 10197 10200 10203 10206 10208 10211 10214 10218 10221 10223 10226 10230 10233 10236 10239 10242 10245
10073 10072 10071 10071 10073 10075 10076 10076 10078 10081 10084 10087 10089 10090 10092 10094 10096 10096 10098 10099 10101 10103 10105 10107 10109 10111 10113 10116 10118 10121 10124 10128 10131 10135 10139 10142 10145 10148 10151 10155 10158 10162 10165 10168 10171 10174 10177 10180 10183 10186 10188 10192 10195 10199 10202 10205 10208 10211 10214 10217 10221 10224 10228
10053 10053 10052 10052 10054 10056 10056 10057 10059 10061 10063 10065 10067 10068 10070 10073 10075 10075 10076 10078 10081 10083 10084 10087 10089 10091 10093 10096 10098 10100 10103 10106 10110 10113 10117 10121 10124 10127 10130 10134 10137 10141 10145 10148 10151 10155 10157 10160 10164 10166 10168 10172 10176 10180 10183 10186 10189 10192 10195 10198 10201 10205 10210
10034 10034 10034 10034 10035 10037 10038 10039 10040 10043 10045 10045 10045 10046 10049 10053 10055 10056 10056 10058 10060 10062 10064 10066 10068 10071 10073 10076 10078 10080 10082 10085 10088 10092 10095 10099 10102 10106 10109 10113 10116 10120 10124 10128 10131 10135 10137 10140 10144 10146 10149 10152 10156 10160 10164 10167 10170 10173 10176 10179 10181 10184 10190
10016 10015 10016 10016 10017 10018 10020 10021 10023 10025 10027 10026 10024 10025 10028 10031 10034 10037 10038 10039 10040 10042 10044 10046 10048 10050 10053 10056 10059 10061 10063 10065 10068 10071 10074 10078 10081 10084 10088 10092 10095 10099 10102 10107 10111 10114 10117 10119 10123 10127 10129 10132 10136 10140 10144 10147 10150 10153 10156 10159 10162 10165 10170
9998 9998 9998 9999 9999 10000 10001 10003 10005 10008 10011 10010 10006 10006 10008 10011 10013 10016 10019 10021 10022 10023 10024 10026 10028 10030 10032 10036 10039 10042 10044 10046 10049 10051 10054 10057 10060 10064 10067 10071 10075 10078 10082 10086 10090 10094 10097 10099 10103 10106 10109 10112 10116 10121 10124 10126 10129 10133 10136 10138 10141 10145 10150
9982 9981 9981 9982 9982 9983 9984 9985 9987 9990 9994 9995 9991 9987 9988 9991 9994 9996 9999 10002 10004 10005 10006 10007 10008 10010 10012 10015 10019 10022 10025 10027 10030 10032 10034 10037 10040 10043 10047 10050 10054 10058 10061 10065 10069 10073 10077 10080 10083 10086 10089 10092 10096 10101 10104 10107 10110 10112 10115 10118 10121 10125 10130
9966 9965 9965 9965 9966 9966 9967 9968 9970 9973 9976 9980 9979 9972 9969 9972 9976 9978 9981 9983 9985 9987 9988 9989 9990 9991 9993 9996 9998 10002 10005 10008 10011 10013 10015 10018 10021 10024 10027 10031 10034 10038 10041 10045 10048 10052 10056 10060 10063 10066 10069 10073 10077 10081 10084 10088 10091 10093 10095 10097 10100 10105 10110
9949 9949 9949 9949 9949 9950 9951 9951 9953 9956 9959 9963 9965 9959 9953 9953 9957 9960 9963 9965 9967 9968 9969 9971 9972 9973 9975 9977 9979 9982 9985 9988 9992 9994 9995 9999 10002 10005 10008 10011 10015 10018 10022 10026 10029 10032 10035 10039 10043 10047 10051 10054 10057 10061 10064 10068 10071 10073 10076 10078 10081 10084 10089
9933 9933 9932 9932 9933 9933 9934 9935 9936 9939 9942 9946 9950 9947 9940 9937 9938 9941 9945 9947 9949 9951 9951 9952 9954 9956 9958 9959 9961 9964 9966 9969 9973 9975 9976 9979 9984 9987 9989 9992 9995 9999 10003 10007 10010 10013 10016 10019 10023 10029 10033 10035 10037 10041 10044 10047 10050 10053 10056 10059 10062 10065 10069
9918 9917 9917 9916 9916 9916 9917 9919 9920 9922 9925 9929 9934 9933 9927 9923 9922 9923 9927 9930 9932 9933 9935 9935 9936 9938 9940 9942 9944 9946 9949 9952 9956 9957 9957 9960 9965 9968 9971 9974 9977 9980 9984 9988 9991 9994 9997 10001 10005 10009 10013 10016 10018 10021 10024 10026 10030 10033 10036 10039 10043 10046 10048
9902 9902 9901 9901 9900 9900 9901 9902 9904 9906 9908 9912 9917 9918 9915 9910 9908 9907 9909 9914 9916 9917 9918 9919 9920 9921 9922 9924 9926 9928 9931 9934 9938 9941 9941 9942 9946 9950 9953 9956 9958 9961 9964 9968 9972 9975 9978 9981 9985 9988 9992 9995 9999 10002 10004 10006 10010 10013 10016 10019 10023 10026 10028
9886 9887 9887 9886 9885 9885 9885 9885 9887 9889 9892 9894 9899 9902 9902 9898 9894 9891 9894 9899 9900 9901 9902 9903 9903 9904 9904 9905 9907 9909 9912 9915 9920 9924 9925 9926 9929 9931 9934 9937 9940 9941 9945 9950 9954 9957 9959 9961 9964 9967 9971 9975 9979 9983 9985 9987 9990 9993 9996 10000 10003 10005 10008
9871 9872 9872 9871 9871 9871 9870 9870 9871 9873 9876 9878 9881 9885 9888 9886 9880 9877 9880 9884 9884 9885 9887 9888 9888 9888 9887 9888 9888 9890 9894 9897 9902 9907 9909 9911 9913 9913 9914 9919 9921 9922 9926 9931 9934 9937 9940 9942 9945 9948 9951 9954 9957 9961 9965 9968 9971 9973 9976 9980 9983 9985 9988
9857 9857 9858 9857 9857 9857 9856 9856 9856 9857 9859 9862 9864 9868 9872 9872 9868 9865 9867 9869 9869 9869 9871 9873 9873 9872 9872 9871 9871 9872 9875 9879 9884 9890 9895 9895 9895 9896 9898 9901 9903 9904 9908 9912 9914 9917 9921 9924 9926 9929 9932 9934 9937 9940 9945 9949 9953 9955 9957 9960 9964 9966 9968
9843 9843 9844 9844 9844 9843 9842 9842 9841 9841 9843 9846 9848 9851 9855 9857 9855 9853 9853 9854 9854 9854 9856 9857 9857 9857 9857 9857 9856 9856 9857 9860 9865 9874 9878 9877 9878 9881 9883 9883 9883 9886 9890 9893 9895 9898 9902 9905 9908 9910 9913 9916 9918 9921 9925 9930 9933 9937 9939 9941 9945 9947 9949
9830 9830 9829 9830 9830 9829 9829 9828 9827 9826 9828 9830 9832 9835 9838 9840 9840 9839 9839 9840 9839 9839 9840 9841 9840 9840 9841 9842 9842 9841 9842 9843 9847 9854 9859 9860 9862 9865 9865 9865 9866 9870 9872 9875 9877 9880 9883 9886 9889 9892 9895 9898 9901 9904 9907 9910 9914 9917 9920 9923 9926 9928 9930
9818 9817 9816 9815 9815 9815 9815 9815 9813 9813 9813 9815 9817 9819 9822 9824 9824 9824 9825 9826 9826 9826 9826 9825 9824 9824 9825 9826 9826 9827 9828 9829 9831 9835 9839 9843 9846 9847 9847 9848 9851 9853 9855 9858 9860 9863 9865 9868 9870 9874 9877 9880 9883 9886 9889 9891 9893 9897 9900 9904 9907 9909 9912
9804 9803 9802 9801 9801 9801 9802 9801 9801 9800 9801 9801 9802 9803 9805 9807 9809 9809 9811 9812 9813 9813 9812 9810 9808 9809 9810 9811 9812 9812 9813 9814 9816 9818 9821 9825 9827 9829 9831 9832 9835 9837 9838 9840 9843 9845 9848 9849 9851 9854 9857 9861 9864 9867 9869 9871 9874 9876 9880 9883 9887 9889 9892
9791 9791 9789 9788 9787 9786 9787 9787 9787 9788 9788 9789 9788 9788 9790 9792 9793 9794 9795 9797 9798 9798 9797 9795 9793 9794 9796 9797 9798 9798 9798 9798 9799 9802 9805 9808 9810 9812 9814 9816 9818 9821 9822 9824 9826 9829 9831 9832 9833 9836 9839 9842 9845 9847 9850 9853 9855 9858 9860 9863 9866 9870 9872
9778 9777 9777 9776 9774 9772 9772 9772 9773 9775 9775 9775 9774 9774 9775 9776 9777 9778 9780 9782 9783 9784 9783 9781 9779 9780 9782 9783 9784 9783 9783 9783 9784 9786 9789 9792 9794 9796 9797 9799 9802 9804 9806 9808 9810 9813 9814 9816 9817 9819 9822 9825 9828 9830 9832 9836 9839 9840 9842 9845 9849 9851 9853
9765 9764 9764 9763 9761 9759 9758 9757 9759 9761 9762 9762 9762 9761 9762 9762 9762 9763 9765 9766 9769 9770 9769 9767 9766 9767 9769 9769 9768 9768 9769 9769 9770 9771 9774 9776 9777 9779 9781 9782 9785 9788 9790 9793 9795 9796 9798 9799 9800 9802 9805 9807 9810 9813 9815 9818 9821 9823 9825 9828 9831 9834 9836
9753 9752 9751 9750 9748 9746 9745 9744 9745 9747 9748 9749 9749 9750 9749 9749 9749 9750 9751 9752 9754 9755 9754 9753 9753 9754 9754 9754 9754 9754 9755 9756 9757 9758 9759 9761 9762 9763 9764 9766 9768 9771 9774 9776 9778 9780 9781 9782 9784 9786 9788 9790 9792 9794 9796 9800 9803 9804 9806 9809 9812 9815 9818
9740 9739 9739 9738 9735 9733 9732 9731 9732 9733 9734 9735 9736 9737 9737 9736 9736 9737 9737 9737 9738 9739 9739 9739 9739 9740 9740 9740 9741 9741 9741 9742 9744 9744 9745 9746 9747 9748 9749 9750 9752 9754 9757 9760 9761 9763 9765 9767 9768 9770 9771 9773 9775 9776 9778 9781 9784 9785 9788 9790 9792 9795 9799
9725 9725 9725 9725 9723 9721 9719 9718 9717 9718 9720 9721 9722 9722 9723 9723 9723 9723 9722 9723 9723 9724 9724 9724 9725 9725 9726 9727 9728 9727 9727 9728 9730 9730 9731 9732 9733 9734 9734 9735 9736 9739 9741 9743 9744 9746 9748 9750 9752 9753 9755 9757 9758 9760 9761 9763 9765 9767 9769 9771 9773 9776 9780
9712 9711 9711 9711 9709 9708 9707 9705 9704 9704 9705 9707 9708 9709 9709 9709 9709 9708 9708 9709 9709 9709 9710 9710 9710 9710 9711 9713 9714 9714 9714 9714 9715 9716 9717 9718 9719 9720 9720 9720 9722 9723 9725 9727 9729 9731 9732 9733 9735 9737 9739 9740 9742 9744 9744 9745 9747 9749 9751 9753 9755 9758 9761
9700 9699 9698 9697 9696 9694 9692 9691 9691 9690 9690 9692 9693 9695 9696 9696 9695 9694 9695 9695 9695 9695 9695 9696 9696 9696 9697 9699 9700 9700 9700 9701 9701 9702 9703 9704 9705 9707 9707 9707 9707 9708 9709 9711 9714 9716 9716 9717 9719 9721 9722 9724 9725 9727 9728 9728 9729 9732 9734 9737 9739 9741 9743
9687 9687 9686 9684 9683 9682 9679 9677 9676 9676 9677 9677 9679 9681 9682 9682 9681 9681 9681 9682 9682 9681 9681 9682 9682 9682 9683 9685 9686 9687 9686 9687 9687 9688 9689 9690 9691 9692 9693 9694 9693 9693 9694 9696 9698 9700 9701 9702 9703 9705 9706 9707 9708 9710 9711 9712 9712 9715 9718 9721 9723 9725 9726
9675 9674 9672 9671 9671 9670 9667 9665 9663 9663 9664 9664 9665 9666 9667 9667 9667 9667 9668 9668 9667 9667 9668 9668 9668 9669 9669 9671 9672 9672 9672 9673 9673 9674 9674 9675 9676 9677 9678 9680 9680 9679 9680 9681 9683 9684 9685 9686 9688 9690 9691 9692 9692 9693 9694 9695 9696 9699 9702 9705 9707 9709 9710
9668 9664 9661 9659 9658 9657 9654 9652 9651 9651 9652 9652 9652 9653 9653 9653 9652 9653 9653 9654 9654 9654 9654 9654 9654 9655 9656 9657 9657 9657 9658 9658 9659 9659 9660 9660 9660 9661 9662 9664 9665 9666 9666 9667 9667 9669 9670 9671 9673 9674 9676 9677 9677 9677 9678 9680 9681 9683 9685 9688 9690 9692 9694
9658 9657 9653 9650 9647 9644 9641 9639 9639 9639 9639 9640 9640 9640 9640 9639 9639 9640 9640 9640 9641 9641 9640 9640 9640 9641 9642 9643 9643 9643 9644 9644 9645 9645 9646 9646 9646 9646 9647 9648 9650 9651 9651 9652 9652 9653 9655 9656 9657 9659 9660 9661 9662 9661 9662 9664 9666 9667 9669 9671 9673 9676 9677